This is the latest recevied weather packets stored in our database for station/object WD4ITN. If no packets are shown the sender has not sent any weather packets the latest 10 day(s).
| Time | Temp. | Humidity | Pressure | Rain* | Wind** | Luminosity | Snow |
|---|---|---|---|---|---|---|---|
| 1777313292 | 18.89° C | 47% | 1020.7 hPa | 0 mm | - | - | - |
| 1777312995 | 18.33° C | 45% | 1020.6 hPa | 0 mm | - | - | - |
| 1777312712 | 18.33° C | 49% | 1020.6 hPa | 0 mm | - | - | - |
| 1777312412 | 18.33° C | 45% | 1020.6 hPa | 0 mm | - | - | - |
| 1777312096 | 18.33° C | 47% | 1020.7 hPa | 0 mm | - | - | - |
| 1777311819 | 18.33° C | 53% | 1020.6 hPa | 0 mm | - | - | - |
| 1777311508 | 17.78° C | 48% | 1020.9 hPa | 0 mm | - | - | - |
| 1777311211 | 17.22° C | 50% | 1021.1 hPa | 0 mm | - | - | - |
| 1777310901 | 17.22° C | 51% | 1021.2 hPa | 0 mm | - | - | - |
| 1777310598 | 17.22° C | 53% | 1021.1 hPa | 0 mm | - | - | - |
| 1777310316 | 17.22° C | 46% | 1021.2 hPa | 0 mm | - | - | - |
| 1777310010 | 17.22° C | 52% | 1021.3 hPa | 0 mm | - | - | - |
| 1777309694 | 16.67° C | 49% | 1021.4 hPa | 0 mm | - | - | - |
| 1777309413 | 16.67° C | 50% | 1021.4 hPa | 0 mm | - | - | - |
| 1777309107 | 16.67° C | 53% | 1021.3 hPa | 0 mm | - | - | - |
| 1777308807 | 16.67° C | 53% | 1021.4 hPa | 0 mm | - | - | - |
| 1777308496 | 16.11° C | 55% | 1021.4 hPa | 0 mm | - | - | - |
| 1777308214 | 15.56° C | 53% | 1021.6 hPa | 0 mm | - | - | - |
| 1777307910 | 16.11° C | 53% | 1021.6 hPa | 0 mm | - | - | - |
| 1777307611 | 15.56° C | 51% | 1021.8 hPa | 0 mm | - | - | - |
| 1777307304 | 15.56° C | 53% | 1021.8 hPa | 0 mm | - | - | - |
| 1777307005 | 15.56° C | 56% | 1021.8 hPa | 0 mm | - | - | - |
| 1777306702 | 15° C | 54% | 1021.8 hPa | 0 mm | - | - | - |
| 1777306398 | 15.56° C | 53% | 1021.8 hPa | 0 mm | - | - | - |
| 1777306100 | 15.56° C | 56% | 1021.8 hPa | 0 mm | - | - | - |
* Rain since midnight (hover to see other rain measurements)
** Current wind speed in m/s (hover to see current wind gust speed)